COSMOS 1275 DEB, 12726

Orbit data source: Space-Track

COSMOS 1275 DEB, 12726 is space debris in LEO originally from a launch on Thu, 04 Jun 1981 UTC launched from the Plesetsk Missile And Space Complex (PKMTR). Debris objects in space refer to the collection of defunct objects orbiting the Earth. Examples of debris include non-operational satellites, rocket bodies, and fragments generated from explosions, collisions, or faulty payload assembly.

Loading next visibility...
Identifier
12726, 1981-053BT
Orbit
LEO
Country
Flag of CISCIS
Related business
Manufacturer
Unknown
Mission
Spacecraft
Bus & Motor
Unknown
Mass
Unknown
Launch date (UTC)
1981-06-04 (45 years ago)
Launch vehicle
Unknown
Launch site
Plesetsk Missile And Space Complex (PKMTR)
Object type
Payload
Rocket body
Debris
Shape & HBR
Unknown shape, 0.3 m
Radar Cross Section
Medium (>0.1 m² and <1 m²)

Expand to show TLE details & history
Last TLE update: 11 hours ago

TLE from 11 hours ago
0 COSMOS 1275 DEB
1 12726U 81053BT  26254.50852351  .00000731  00000-0  44452-3 0  9996
2 12726  82.9411 253.9804 0039387 220.6678 268.8879 14.04588175287083
Epoch: 2026-09-11T12:12Z
TLE epoch observation values (Epoch: 2026-09-11T12:12:16.431Z)
Latitude
50.46258°
Longitude
-108.2011°
Altitude
886.689 km
Speed
7.413 km/s
True Right ascension
04h 21m 35s
True Declination
50° 17' 48"
Sunlit
Object was in daylight at epoch
Visualization orbit readout
Latitude
Unknown
Longitude
Unknown
Altitude
Unknown
Speed
Unknown
Apparent Right ascension
Unknown
Apparent Declination
Unknown
Sunlit
N/A
Visualization observer readout
Local Sidereal Time
16:02:23
Azimuth
Unknown
Elevation
Unknown
Doppler factor
Unknown
Orbital elements
Apogee altitude
903.626 km
Perigee altitude
846.49 km
Semi-major axis
7,253.195 km
Eccentricity
0.00394
Inclination
82.9411°
RAAN
253.9804°
Arg. of periapsis
220.6678°
True anomaly
268.43669°
Mean anomaly
268.8879°
Eccentric anomaly
268.66229°
Mean motion
3.51357 °/min
Orbital period
102.46 mins
BSTAR
0.00044452
Loading maneuver chart data...
Computing Atmospheric mass density...
Loading historical data...
Loading historical data...
Loading historical data...
Loading historical data...
Loading historical data...
Loading historical data...
Loading historical data...

Documentation

Showing up to 5 results
|